{"data":{"norad_id":47126,"epoch":"2026-05-25T04:06:27.423072Z","epoch_age_seconds":50429,"freshness":"FRESH","line1":"1 47126U 20088E   26145.17115073  .00032803  00000+0  15303-2 0  9990","line2":"2 47126  53.0769 310.5664 0001832 138.8022 221.3111 15.19585314303486","mean_motion":15.19585314,"eccentricity":0.0001832,"inclination_deg":53.0769,"raan_deg":310.5664,"arg_perigee_deg":138.8022,"mean_anomaly_deg":221.3111,"bstar":0.0015303,"rev_number":30348,"period_min":94.762695238841,"perigee_km":505.83158097875,"apogee_km":508.3543292343,"semimajor_km":6885.2299551065,"source":"CELESTRAK","updated_at":"2026-05-25T13:38:16.521333Z"}}